This is the latest recevied weather packets stored in our database for station/object KD4EG. If no packets are shown the sender has not sent any weather packets the latest 10 day(s).
| Time | Temp. | Humidity | Pressure | Rain* | Wind** | Luminosity | Snow |
|---|---|---|---|---|---|---|---|
| 1788362359 | 31.67° C | 64% | 1022.9 hPa | 0 mm | - | 651 W/m² | - |
| 1788362054 | 31.11° C | 64% | 1023 hPa | 0 mm | - | 678 W/m² | - |
| 1788361749 | 31.11° C | 64% | 1022.9 hPa | 0 mm | - | 721 W/m² | - |
| 1788361445 | 30.56° C | 65% | 1022.8 hPa | 0 mm | - | 615 W/m² | - |
| 1788361144 | 30.56° C | 66% | 1022.8 hPa | 0 mm | - | 577 W/m² | - |
| 1788360840 | 30.56° C | 67% | 1022.5 hPa | 0 mm | - | 629 W/m² | - |
| 1788360535 | 30° C | 68% | 1022.8 hPa | 0 mm | - | 587 W/m² | - |
| 1788360231 | 29.44° C | 70% | 1022.9 hPa | 0 mm | - | 547 W/m² | - |
| 1788359930 | 29.44° C | 70% | 1022.7 hPa | 0 mm | - | 551 W/m² | - |
| 1788359626 | 28.89° C | 71% | 1022.7 hPa | 0 mm | - | 522 W/m² | - |
| 1788359322 | 28.89° C | 72% | 1022.8 hPa | 0 mm | - | 524 W/m² | - |
| 1788359017 | 28.33° C | 73% | 1022.8 hPa | 0 mm | - | 475 W/m² | - |
| 1788358712 | 28.89° C | 72% | 1022.9 hPa | 0 mm | - | 435 W/m² | - |
| 1788358408 | 27.78° C | 74% | 1022.7 hPa | 0 mm | - | 478 W/m² | - |
| 1788358107 | 28.33° C | 74% | 1022.7 hPa | 0 mm | - | 487 W/m² | - |
| 1788357803 | 27.78° C | 76% | 1022.4 hPa | 0 mm | - | 412 W/m² | - |
| 1788357501 | 27.22° C | 76% | 1022.5 hPa | 0 mm | - | 397 W/m² | - |
| 1788357198 | 27.22° C | 76% | 1022.5 hPa | 0 mm | - | 387 W/m² | - |
| 1788356897 | 27.22° C | 77% | 1022.6 hPa | 0 mm | - | 380 W/m² | - |
| 1788356593 | 26.67° C | 77% | 1022.7 hPa | 0 mm | - | 369 W/m² | - |
| 1788356288 | 26.67° C | 78% | 1022.6 hPa | 0 mm | - | 349 W/m² | - |
| 1788355989 | 26.67° C | 77% | 1022.6 hPa | 0 mm | - | 344 W/m² | - |
| 1788355683 | 26.67° C | 78% | 1022.5 hPa | 0 mm | - | 286 W/m² | - |
| 1788355378 | 26.67° C | 78% | 1022.5 hPa | 0 mm | - | 285 W/m² | - |
| 1788355073 | 26.11° C | 79% | 1022.4 hPa | 0 mm | - | 288 W/m² | - |
* Rain latest hour (hover to see other rain measurements)
** Current wind speed in m/s (hover to see current wind gust speed)